Location: San Martino di Castrozza
(46.2667°N, 11.8000°E)
Time: 06:45:33
(UTC+00:00)

CZ-2D R/B - Pass Details

Date: 23 April 2021
Orbit: 792 x 844 km, 98.7° (Epoch: 07 May)

Event Time Altitude Azimuth Distance (km) Brightness Sun altitude
Rises 02:05:41 0° 5° (N) 3,416 6.1 -19.3°
Reaches altitude 10° 02:08:23 10° 353° (N) 2,476 5.1 -19.0°
Maximum altitude 02:12:53 27° 298° (WNW) 1,577 3.4 -18.4°
Enters shadow 02:14:41 22° 268° (W) 1,746 3.4 -18.2°
